Home > Weather > Moga > Past weeks

Flag for India Past Weather in Moga, Punjab, India — Yesterday and Last 2 Weeks

Now
82 °F

Fog.


Feels Like: 96 °F
Forecast: 88 / 102 °F
Wind: 2 mph from North

Location: Amritsar Airport

Current Time: Jul 24, 2016 at 8:25:52 AM

Latest Report: Jul 24, 2016 at 8:00 AM


Visibility: 1 mi

Pressure: 29.68 "Hg

Humidity: 100%

Dew Point: 82 °F

Location of MogaLocation

Past Weather in Moga — Graph

°F

Moga Temperature Yesterday

Maximum temperature yesterday: 90 °F (at 12:00 AM)
Minimum temperature yesterday: 73 °F (at 7:00 AM)
Average temperature yesterday: 84 °F

High & Low Weather Summary for the Past Weeks

 TemperatureHumidityPressure
High99 °F (Jul 21, 1:00 PM)100% (Jul 9, 1:30 PM)29.68 "Hg (Jul 9, 1:30 PM)
Low73 °F (Jul 17, 5:00 AM)49% (Jul 10, 3:00 PM)29.36 "Hg (Jul 10, 5:00 PM)
Average87 °F87%29.52 "Hg
* Reported Jul 9 6:30 AM — Jul 24 7:00 AM, Moga, Weather by CustomWeather, © 2016

Note: Actual official high and low records may vary slightly from our data, if they occured in-between our weather recording intervals... More about our weather records

Advertising

Moga Weather History for the Previous 24 Hours

Scroll right to see more
 ConditionsComfort  
Time TempWeatherWind HumidityBarometerVisibility
7:00 AM
Sun, Jul 24
82 °FFog.2 mph100%29.68 "Hg1 mi
6:30 AM82 °FFog.2 mph100%29.68 "Hg1 mi
5:30 AM81 °FFog.No wind100%29.68 "Hg2 mi
5:00 AM81 °FFog.2 mph100%29.65 "Hg2 mi
4:30 AM81 °FFog.2 mph100%29.65 "Hg2 mi
4:00 AM81 °FFog.3 mph100%29.65 "Hg2 mi
3:30 AM81 °FFog.No wind100%29.65 "Hg2 mi
3:00 AM82 °FFog.No wind100%29.65 "Hg2 mi
2:30 AM82 °FFog.No wind100%29.65 "Hg2 mi
2:00 AM82 °FFog.No wind100%29.65 "Hg2 mi
1:30 AM82 °FFog.No wind100%29.65 "Hg2 mi
1:00 AM82 °FFog.1 mph100%29.62 "Hg2 mi
12:30 AM82 °FFog.1 mph100%29.62 "Hg2 mi
12:00 AM82 °FFog.No wind100%29.62 "Hg2 mi
11:30 PM
Sat, Jul 23
84 °FFog.No wind100%29.62 "Hg2 mi
11:00 PM84 °FFog.No wind100%29.62 "Hg2 mi
10:30 PM84 °FFog.No wind100%29.62 "Hg2 mi
10:00 PM84 °FFog.No wind100%29.59 "Hg2 mi
9:30 PM84 °FFog.2 mph100%29.59 "Hg2 mi
9:00 PM84 °FFog.No wind100%29.59 "Hg2 mi
8:30 PM84 °FFog.No wind100%29.59 "Hg2 mi
8:00 PM84 °FFog.2 mph100%29.59 "Hg2 mi
7:30 PM84 °FFog.2 mph100%29.56 "Hg2 mi
7:00 PM86 °FFog.2 mph94%29.56 "Hg2 mi
6:00 PM86 °FFog.3 mph94%29.56 "Hg3 mi
5:30 PM88 °FFog.6 mph84%29.56 "Hg3 mi
5:00 PM88 °FFog.8 mph84%29.56 "Hg3 mi
4:30 PM88 °FFog.8 mph84%29.56 "Hg3 mi
4:00 PM88 °FFog.7 mph84%29.59 "Hg3 mi
3:30 PM88 °FFog.7 mph84%29.59 "Hg3 mi
3:00 PM88 °FFog.8 mph79%29.56 "Hg3 mi
2:30 PM88 °FFog.3 mph79%29.59 "Hg3 mi
2:00 PM88 °FFog.9 mph79%29.62 "Hg3 mi
1:30 PM88 °FFog.7 mph79%29.62 "Hg3 mi
12:30 PM84 °FFog.12 mph84%29.65 "Hg3 mi
12:00 PM82 °FThunderstorms. More clouds than sun.13 mph94%29.65 "Hg3 mi
11:30 AM81 °FThunderstorms. More clouds than sun.13 mph100%29.65 "Hg3 mi
11:00 AM81 °FThunderstorms. More clouds than sun.13 mph100%29.62 "Hg2 mi
10:30 AM81 °FThunderstorms. More clouds than sun.8 mph100%29.59 "Hg2 mi
10:00 AM81 °FThunderstorms. More clouds than sun.10 mph100%29.59 "Hg2 mi
9:30 AM82 °FThunderstorms. More clouds than sun.5 mph94%29.59 "Hg2 mi
9:00 AM79 °FThunderstorms. More clouds than sun.12 mph100%29.59 "Hg2 mi
8:30 AM77 °FThunderstorms. More clouds than sun.9 mph100%29.59 "Hg2 mi
8:00 AM77 °FThunderstorms. More clouds than sun.2 mph100%29.59 "Hg2 mi
Weather by CustomWeather, © 2016

See weather overviewHow to use our weather pages